Location: Les Salelles
(44.4192°N, 4.1044°E)
Time: 16:40:25
(UTC+00:00)

Cosmos 44 - Pass Details

Date: 20 January 2021
Orbit: 572 x 789 km, 65.1° (Epoch: 26 February)

Event Time Altitude Azimuth Distance (km) Brightness Sun altitude
Rises 19:12:53 0° 216° (SW) 2,948 7.0 -27.6°
Reaches altitude 10° 19:15:06 10° 218° (SW) 2,075 6.2 -28.0°
Enters shadow 19:18:42 53° 230° (SW) 845 3.9 -28.6°
